Probability
0 0 0 0 0 0 0 0 0 0 0 0 0 1 2 2 1 0 0 0 0 0 0 0 0 0 0 0 0 0 0 0 0 0 0 1 2 2
0 0 0 0 0 0 0 0 0 0 0 0 0 1 2 2 1 0 0 0 0 0 0 0 0 0 0 0 0 0 0 0 0 0 0 0 1 1
0 0 0 0 0 0 0 0 0 0 0 0 1 2 2 1 0 0 0 0 0 0 0 0 0 0 0 0 0 0 0 0 0 0 0 0 0 0
0 0 0 0 0 0 0 0 0 0 0 1 1 1 1 0 0 0 0 0 0 0 0 0 0 0 0 0 0 0 0 0 0 0 0 0 0 0
0 0 0 0 0 0 0 0 0 0 0 1 2 1 0 0 0 0 0 0 0 0 0 0 0 0 0 0 0 0 0 0 0 0 0 0 0 0
0 0 0 0 0 0 0 0 0 0 0 1 2 1 0 0 0 0 0 0 0 0 0 0 0 0 0 0 0 0 0 0 0 0 0 0 0 0
0 0 0 0 0 0 0 0 0 0 1 2 2 1 0 0 0 0 0 0 0 0 0 0 0 0 0 0 0 0 0 0 0 0 0 0 0 0
0 0 0 0 0 0 0 0 0 0 1 2 2 1 0 0 0 0 0 0 0 0 0 0 0 0 0 0 0 0 0 0 0 0 0 0 0 0
0 0 0 0 0 0 0 0 0 0 1 1 1 0 0 0 0 0 0 0 0 0 0 0 0 0 0 0 0 0 0 0 0 0 0 0 0 0
0 0 0 0 0 0 0 0 0 0 0 0 0 0 0 0 0 0 0 0 0 0 0 0 0 0 0 0 0 0 0 0 0 0 0 0 0 0
0 0 0 0 0 0 0 0 0 0 0 0 0 0 0 0 0 0 0 0 0 0 0 0 0 0 0 0 0 0 0 0 0 0 0 0 0 0
0 0 0 0 0 0 0 0 0 0 0 0 0 0 0 0 0 0 0 0 0 0 0 0 0 0 0 0 0 0 0 0 0 0 0 0 0 0
0 0 0 0 0 0 0 0 0 0 0 0 0 0 0 0 0 0 0 0 0 0 0 0 0 0 0 0 0 0 0 0 0 0 0 0 0 0
0 0 0 0 0 0 0 0 0 0 0 0 0 0 0 0 0 0 0 0 0 0 0 0 0 0 0 0 0 0 0 0 0 0 0 0 0 0
0 0 0 0 0 0 0 0 0 0 0 0 0 0 0 0 0 0 0 0 0 0 0 0 0 0 0 0 0 0 0 0 0 0 0 0 0 0
0 0 0 0 0 0 0 0 0 0 0 0 0 0 0 0 0 0 0 0 0 0 0 0 0 0 0 0 0 0 0 0 0 0 0 0 0 0
0 0 0 0 0 0 0 0 0 0 0 0 0 0 0 0 0 0 0 0 0 0 0 0 0 0 0 0 0 0 0 0 0 0 0 0 0 0
0 0 0 0 0 0 0 0 0 0 0 0 0 0 0 0 0 0 0 0 0 0 0 0 0 0 0 0 0 0 0 0 0 0 0 0 0 0
0 0 0 0 0 0 0 0 0 0 0 0 0 0 0 0 0 0 0 0 0 0 0 0 0 0 0 0 0 0 0 0 0 0 0 0 0 0
0 0 0 0 0 0 0 0 0 0 0 0 0 0 0 0 0 0 0 0 0 0 0 0 0 0 0 0 0 0 0 0 0 0 0 0 0 0
0 0 0 0 0 0 0 0 0 0 0 0 0 0 0 0 0 0 0 0 0 0 0 0 0 0 0 0 0 0 0 0 0 0 0 0 0 0
0 0 0 0 0 0 0 0 0 0 0 0 0 0 0 0 0 0 0 0 0 0 0 0 0 0 0 0 0 0 0 0 0 0 0 0 0 0
0 0 0 0 0 0 0 0 0 0 0 0 0 0 0 0 0 0 0 0 0 0 0 0 0 0 0 0 0 0 0 0 0 0 0 0 0 0
Wind_Speed
4 3 3 3 2 2 2 3 3 3 3 2 2 2 3 4 7 5 5 9 11 10 10 9 9 9 9 9 9 9 9 9 9 9 10 11 12 13
4 4 3 3 2 2 2 2 3 3 3 3 2 2 3 4 6 5 5 10 10 9 9 8 8 8 8 7 7 7 7 7 6 6 7 7 9 10
5 5 5 4 3 3 2 2 2 2 3 2 1 2 3 5 5 5 5 5 5 9 9 8 8 7 7 7 6 6 5 5 4 5 5 6 6 8
7 6 6 4 4 3 3 3 2 2 3 3 2 2 3 6 6 7 6 5 4 8 9 9 8 8 7 6 6 5 4 4 4 4 4 5 5 6
8 7 7 5 5 4 4 3 3 2 2 3 3 2 3 5 6 5 6 4 5 6 8 8 8 8 7 6 5 4 4 4 3 3 4 4 4 5
7 7 7 7 7 6 5 4 3 2 3 3 3 3 3 4 5 6 5 3 4 4 5 5 6 7 6 5 5 4 4 4 3 3 3 3 3 3
7 7 8 10 11 8 6 5 5 3 3 3 3 3 4 5 5 5 5 4 2 3 4 3 3 3 3 4 4 4 4 4 3 3 3 2 2 2
7 7 7 9 11 12 11 10 9 6 5 4 3 4 5 5 4 6 6 6 4 4 4 3 3 3 2 2 3 4 4 4 4 4 3 3 3 3
7 7 7 8 9 7 9 10 9 10 9 6 5 5 5 6 7 7 7 6 4 6 5 3 3 2 2 2 4 4 4 5 5 5 5 6 6 6
8 8 8 6 7 7 7 6 6 6 8 5 5 6 5 6 7 7 7 5 4 4 4 4 3 2 2 2 4 5 5 5 6 7 7 8 8 8
8 8 8 8 10 11 7 7 6 4 6 9 8 7 8 8 7 6 6 7 5 4 3 4 4 3 2 2 2 5 6 6 7 7 8 9 10 9
6 7 10 10 11 12 8 7 7 6 5 6 5 5 5 6 9 7 7 7 5 4 4 5 5 4 3 1 2 2 3 4 6 7 8 8 8 6
5 5 6 11 12 13 11 8 10 8 6 6 5 3 3 3 5 5 5 6 6 4 6 6 5 4 4 4 2 2 2 2 3 3 5 6 6 5
5 4 5 10 12 12 10 9 12 9 5 4 4 4 4 4 4 5 6 5 4 5 8 8 5 6 6 5 4 3 3 2 2 3 2 4 5 6
4 6 7 8 9 8 10 11 9 6 5 4 5 5 4 5 4 4 4 4 2 4 8 6 7 7 5 5 6 5 4 3 3 3 3 3 3 3
2 3 5 6 5 5 5 6 5 6 6 5 5 4 3 3 4 4 4 4 3 2 4 6 9 10 5 5 6 6 5 6 6 5 4 3 2 3
3 2 2 2 2 2 2 3 4 4 5 4 4 4 4 4 4 4 4 4 5 5 5 4 4 5 5 7 6 6 6 4 5 6 5 4 3 4
4 3 3 3 4 4 4 4 4 5 5 5 5 5 5 5 4 4 4 5 5 5 5 6 6 5 3 1 4 8 6 5 5 6 4 4 4 3
3 3 3 4 4 4 4 4 5 5 5 5 5 5 5 5 4 5 5 5 5 5 6 7 8 7 7 5 4 6 8 7 7 6 5 4 5 5
2 3 4 4 4 4 5 5 4 4 4 5 5 5 5 5 5 5 6 6 5 5 6 6 7 7 7 7 5 4 8 8 7 8 6 3 2 2
3 3 3 4 4 4 4 5 5 5 5 5 5 6 6 6 5 6 6 8 7 6 8 8 7 8 5 6 5 3 4 8 9 7 7 5 3 3
3 4 4 4 4 4 4 4 4 4 5 5 5 6 6 6 6 7 7 7 6 6 6 5 8 8 5 6 6 6 5 5 5 8 9 8 7 7
3 3 3 4 4 4 4 5 6 5 5 5 5 5 6 6 5 6 6 7 6 6 6 7 7 6 5 6 6 5 7 6 5 4 2 2 6 8
Wind_Direction
228 223 221 230 233 230 211 193 181 200 232 231 197 186 165 153 161 159 159 166 167 173 176 179 184 189 194 199 202 203 206 210 215 221 224 224 224 227
217 217 223 223 223 220 215 213 193 186 212 223 207 176 159 148 146 145 153 152 156 163 168 172 175 179 182 181 182 185 190 196 205 213 217 219 221 224
222 215 222 217 207 213 204 203 207 189 208 231 215 151 137 145 137 131 130 132 145 153 153 153 154 156 157 156 158 166 176 186 200 214 222 223 226 229
219 214 222 218 210 209 194 195 203 197 195 207 195 168 157 158 147 142 137 137 136 147 146 145 144 143 144 148 154 162 173 182 195 211 222 228 233 235
216 209 213 211 211 207 196 191 193 198 188 183 191 173 157 153 140 134 129 128 133 137 136 137 138 138 139 143 150 157 167 177 187 203 219 226 226 228
219 214 207 204 208 202 194 187 180 175 172 170 175 175 159 149 145 146 143 135 131 133 126 125 129 128 129 130 136 144 154 163 176 191 200 206 213 214
218 220 217 210 207 200 193 181 173 172 167 165 176 173 163 159 168 159 153 138 116 131 131 134 129 122 116 119 124 133 140 146 153 158 159 164 173 179
214 219 223 219 214 208 201 185 175 175 175 171 176 182 183 167 157 161 154 156 166 161 145 148 144 138 130 120 128 132 135 136 136 136 136 137 138 140
214 214 222 218 201 201 205 195 190 188 179 172 177 186 183 172 164 168 172 166 165 161 142 145 145 140 128 119 132 132 131 128 126 122 118 116 113 110
214 208 206 207 201 189 194 193 193 196 192 183 185 190 186 174 173 173 167 142 108 147 143 139 141 126 111 101 128 134 133 128 123 118 113 109 105 101
221 213 203 200 205 192 184 188 193 206 206 192 193 194 188 180 165 150 155 154 155 169 162 133 134 121 111 110 118 131 133 130 125 121 118 115 112 103
220 218 211 201 201 195 190 186 190 198 186 187 193 201 195 188 179 172 168 166 158 166 169 140 141 136 134 129 128 131 122 123 127 125 124 121 118 108
207 208 211 203 198 199 193 192 196 185 180 182 183 186 182 181 184 183 179 171 170 174 165 145 145 142 137 140 149 157 146 137 129 130 130 126 122 122
202 200 203 198 195 196 195 204 195 177 162 168 175 187 188 191 194 191 192 192 184 177 167 155 149 155 143 144 157 157 158 156 145 145 142 131 113 107
199 191 188 192 187 191 202 200 185 170 162 171 187 195 194 191 181 181 186 182 184 178 169 167 152 152 148 149 153 154 158 176 172 159 158 156 150 137
188 181 177 174 164 172 183 191 180 178 175 181 191 193 180 173 180 177 177 169 166 181 180 174 161 157 153 147 150 157 161 168 174 174 159 157 159 158
159 128 121 136 157 161 164 171 176 174 184 183 183 184 182 181 187 179 172 166 174 177 168 159 156 153 154 150 151 161 158 158 166 163 158 167 188 186
154 159 173 177 183 185 184 184 183 187 190 185 184 185 185 186 189 181 174 177 180 180 172 161 148 131 109 88 162 159 163 161 158 160 152 161 190 199
162 181 186 191 194 193 191 188 192 195 186 184 189 189 186 185 186 186 183 182 183 180 174 166 166 162 167 177 189 175 163 159 156 164 171 165 183 195
195 194 196 198 197 197 197 197 196 191 187 191 192 190 187 186 188 189 186 184 181 176 174 173 178 177 178 169 159 176 173 160 163 170 171 149 126 133
216 213 210 207 206 201 199 195 191 190 190 191 194 193 189 185 190 191 187 185 178 178 184 188 181 159 125 119 124 140 166 176 164 162 159 146 140 141
227 221 217 213 209 204 197 191 191 193 192 193 194 192 189 186 188 187 183 181 184 182 181 167 149 148 147 157 158 154 152 153 162 162 163 165 163 177
235 229 221 213 208 201 194 190 189 193 193 191 190 188 184 182 182 180 181 181 177 173 162 158 159 160 158 156 153 148 150 152 147 143 162 238 201 193